Retour au catalogue

TK-2

ActifScienceSSO
NORAD 52150·PAYLOAD·🇨🇳 China

Lancé Mar 29, 2022 depuis Taiyuan Satellite Launch Center

Loading…

Prochains Passages (prochaines 24 heures)

TLE

FraisSource: Space-Track

Époque: Sep 14, 2026, 15:06 UTC

1 52150U 22031A   26257.62938775  .00002683  00000-0  19864-3 0  9990
2 52150  97.8280  94.8323 0015255 179.9180 180.2051 15.03952131243906

Suivez TK-2 en temps réel avec AllMySat

Download on the App Store